Flag for U.S.A. Weather past 2 weeks in St. George, Utah, U.S.A.

Now
75 °F

Clear.


Feels Like: 76 °F
Forecast: 74 / 101 °F
Wind: 3 mph from Northeast

Location: Saint George

Current Time: Aug 5, 2015 at 7:03:08 AM

Latest Report: Aug 5, 2015 at 6:35 AM


Visibility: 10 mi

Pressure: 29.99 "Hg (27.22 "Hg at 842m altitude)

Humidity: 22%

Dew point: 34 °F

Location of St. GeorgeLocation

Historic Weather in St. George — Graph

°F

St. George temperature yesterday

Maximum temperature yesterday: 102 °F (at 3:15 PM)
Minimum temperature yesterday: 73 °F (at 5:55 AM)
Average temperature yesterday: 89 °F

Past Weeks' High & Low Weather Summary

 TemperatureHumidityPressure
High102 °F (Aug 4, 3:15 PM)69% (Jul 21, 5:15 AM)30.17 "Hg (Jul 21, 5:15 AM)
Low66 °F (Jul 25, 6:55 AM)9% (Jul 27, 7:15 PM)29.79 "Hg (Jul 22, 6:35 PM)
Average86 °F24%29.99 "Hg
* Reported Jul 21 5:15 AM — Aug 5 5:55 AM, St. George, Weather by CustomWeather, © 2015

Note: Actual official high and low records may vary slightly from our data, if they occured in-between our weather recording intervals... More about our weather records

Advertising

St. George weather history for previous 24 hours

 ConditionsComfort  
Time TempWeatherWind HumidityBarometerVisibility
5:55 AM
Wed, Aug 5
77 °FClear.No wind21%29.97 "Hg10 mi
5:35 AM75 °FClear.5 mph22%29.97 "Hg10 mi
5:15 AM75 °FClear.5 mph22%29.97 "Hg10 mi
4:55 AM79 °FClear.8 mph18%29.97 "Hg10 mi
4:35 AM79 °FClear.12 mph18%29.97 "Hg10 mi
4:15 AM81 °FClear.13 mph17%29.96 "Hg10 mi
3:55 AM81 °FClear.9 mph17%29.96 "Hg10 mi
3:35 AM81 °FClear.5 mph17%29.95 "Hg10 mi
3:15 AM81 °FClear.7 mph17%29.95 "Hg10 mi
2:55 AM81 °FClear.12 mph16%29.95 "Hg10 mi
2:35 AM81 °FClear.10 mph16%29.95 "Hg10 mi
2:15 AM81 °FClear.12 mph16%29.95 "Hg10 mi
1:55 AM81 °FClear.6 mph16%29.95 "Hg10 mi
1:35 AM82 °FClear.8 mph15%29.95 "Hg10 mi
1:15 AM84 °FClear.3 mph14%29.95 "Hg10 mi
12:55 AM81 °FClear.5 mph15%29.95 "Hg10 mi
12:35 AM81 °FClear.9 mph15%29.95 "Hg10 mi
12:15 AM84 °FClear.5 mph13%29.95 "Hg10 mi
11:55 PM
Tue, Aug 4
84 °FClear.No wind13%29.94 "Hg10 mi
11:35 PM84 °FClear.5 mph13%29.94 "Hg10 mi
11:15 PM84 °FClear.7 mph13%29.94 "Hg10 mi
10:35 PM86 °FClear.10 mph12%29.94 "Hg10 mi
9:55 PM88 °FClear.6 mph13%29.93 "Hg10 mi
9:35 PM88 °FSunny.5 mph13%29.92 "Hg10 mi
8:55 PM93 °FSunny.6 mph11%29.91 "Hg10 mi
8:35 PM95 °FSunny.6 mph10%29.91 "Hg10 mi
8:15 PM97 °FSunny.7 mph10%29.91 "Hg10 mi
7:55 PM99 °FSunny.12 mph10%29.90 "Hg10 mi
7:35 PM99 °FSunny.14 mph10%29.90 "Hg10 mi
7:15 PM99 °FSunny.14 mph10%29.90 "Hg10 mi
6:55 PM99 °FSunny.12 mph10%29.91 "Hg10 mi
6:35 PM100 °FSunny.8 mph10%29.91 "Hg10 mi
6:15 PM100 °FSunny.10 mph10%29.91 "Hg10 mi
5:55 PM100 °FSunny.12 mph10%29.91 "Hg10 mi
5:35 PM100 °FSunny.15 mph10%29.91 "Hg10 mi
5:15 PM100 °FSunny.16 mph11%29.91 "Hg10 mi
4:55 PM100 °FSunny.14 mph11%29.92 "Hg10 mi
4:35 PM100 °FSunny.7 mph10%29.92 "Hg10 mi
4:15 PM102 °FSunny.14 mph11%29.92 "Hg10 mi
3:55 PM100 °FSunny.5 mph10%29.93 "Hg10 mi
3:35 PM102 °FSunny.21 mph10%29.94 "Hg10 mi
3:15 PM102 °FSunny.14 mph11%29.94 "Hg10 mi
2:55 PM100 °FSunny.12 mph12%29.94 "Hg10 mi
2:35 PM100 °FSunny.7 mph12%29.96 "Hg10 mi
2:15 PM100 °FSunny.No wind13%29.96 "Hg10 mi
1:55 PM99 °FSunny.5 mph15%29.97 "Hg10 mi
1:35 PM99 °FSunny.6 mph14%29.97 "Hg10 mi
1:15 PM97 °FSunny.No wind14%29.98 "Hg10 mi
12:55 PM97 °FSunny.No wind16%29.99 "Hg10 mi
12:35 PM97 °FSunny.6 mph17%29.99 "Hg10 mi
12:15 PM93 °FSunny.6 mph17%30.00 "Hg10 mi
11:55 AM93 °FSunny.8 mph19%30.00 "Hg10 mi
11:35 AM91 °FSunny.5 mph20%30.01 "Hg10 mi
11:15 AM90 °FSunny.6 mph21%30.01 "Hg10 mi
10:55 AM88 °FSunny.6 mph22%30.01 "Hg10 mi
10:35 AM88 °FSunny.No wind21%30.01 "Hg10 mi
10:15 AM84 °FSunny.5 mph23%30.02 "Hg10 mi
9:55 AM82 °FSunny.5 mph25%30.02 "Hg10 mi
9:35 AM82 °FSunny.6 mph25%30.02 "Hg10 mi
9:15 AM82 °FSunny.No wind21%30.02 "Hg10 mi
8:55 AM82 °FSunny.No wind23%30.02 "Hg10 mi
8:35 AM79 °FSunny.No wind24%30.02 "Hg10 mi
8:15 AM79 °FSunny.No wind26%30.01 "Hg10 mi
7:55 AM77 °FSunny.5 mph26%30.01 "Hg10 mi
7:35 AM75 °FClear.3 mph29%30.00 "Hg10 mi
7:15 AM73 °FClear.6 mph31%30.00 "Hg10 mi
Weather by CustomWeather, © 2015

See weather overviewHow to use our weather pages